Retour au catalogue

STARLINK-5125

ActifCommunicationsVLEO
NORAD 53994·PAYLOAD·🇺🇸 United States

Lancé Oct 5, 2022 depuis Vandenberg Space Force Base

Loading…

Prochains Passages (prochaines 24 heures)

TLE

FraisSource: CelesTrak SupGP

Époque: Sep 14, 2026, 22:18 UTC

1 53994C 22125AG  26257.92965278  .00760940  00000+0  35170-1 0  2571
2 53994  53.1597  83.5629 0001228  85.0703  37.0013 15.19278446    13

Suivez STARLINK-5125 en temps réel avec AllMySat

Download on the App Store